User: anonymous   Login
Location: El Mouella
(16.4949°N, 9.1594°W)
Time: 23:29:48
(UTC+00:00)
Language:

STARLINK-60 - Orbit

View from above orbital plane
View from above orbital plane
View from above satellite
View from above satellite

Ground track
Ground track

The orbit data is extracted from the following two-line orbital elements,

1 44273U 19029AQ  20361.37262435  .19593865  12379-4  10665-2 0  9997
2 44273  52.9738 231.8413 0005472 237.7623 123.7494 16.42262567 90747
Epoch (UTC): 26 December 2020 08:56:34
Eccentricity: 0.0005472
inclination: 52.9738°
perigee height: 156 km
apogee height: 163 km
right ascension of ascending node: 231.8413°
argument of perigee: 237.7623°
revolutions per day: 16.42262567
mean anomaly at epoch: 123.7494°
orbit number at epoch: 9074

The dashed part of the orbit path shows where the satellite is in the earth's shadow,  

DLR